Total_Precipitation_Accumulation
0.00 0.00 0.00 0.00 0.00 0.00 0.00 0.00 0.00 0.00 0.00 0.00 0.00 0.00 0.00 0.00 0.00 0.00 0.00 0.00 0.00 0.00 0.00 0.00 0.00 0.00 0.00 0.00 0.00 0.00 0.00 0.00 0.00 0.00 0.00 0.00 0.00 0.00 0.00 0.00 0.00 0.00 0.00 0.00 0.00 0.00 0.00 0.00 0.00 0.00 0.00 0.00 0.00 0.00
0.00 0.00 0.00 0.00 0.00 0.00 0.00 0.00 0.00 0.00 0.00 0.00 0.00 0.00 0.00 0.00 0.01 0.01 0.00 0.00 0.00 0.00 0.00 0.00 0.00 0.00 0.00 0.00 0.00 0.00 0.00 0.00 0.00 0.00 0.00 0.00 0.00 0.00 0.00 0.00 0.00 0.00 0.00 0.00 0.00 0.00 0.00 0.00 0.00 0.00 0.00 0.00 0.00 0.00
0.00 0.00 0.00 0.00 0.00 0.00 0.00 0.00 0.00 0.00 0.00 0.01 0.01 0.02 0.03 0.03 0.02 0.02 0.00 0.00 0.00 0.00 0.00 0.00 0.00 0.00 0.00 0.00 0.00 0.00 0.00 0.00 0.00 0.00 0.00 0.00 0.00 0.00 0.00 0.00 0.00 0.00 0.00 0.00 0.00 0.00 0.00 0.00 0.00 0.00 0.00 0.00 0.00 0.00
0.00 0.00 0.00 0.00 0.00 0.00 0.00 0.00 0.00 0.00 0.01 0.03 0.04 0.08 0.07 0.06 0.05 0.03 0.00 0.00 0.00 0.00 0.00 0.00 0.00 0.00 0.00 0.00 0.00 0.00 0.00 0.00 0.00 0.00 0.00 0.00 0.00 0.00 0.00 0.00 0.00 0.00 0.00 0.00 0.00 0.00 0.00 0.00 0.00 0.00 0.00 0.00 0.00 0.00
0.03 0.02 0.01 0.00 0.00 0.00 0.00 0.00 0.00 0.00 0.02 0.05 0.10 0.17 0.16 0.11 0.10 0.06 0.01 0.00 0.00 0.00 0.00 0.00 0.00 0.00 0.00 0.00 0.00 0.00 0.00 0.00 0.00 0.00 0.00 0.00 0.00 0.00 0.00 0.00 0.00 0.00 0.00 0.00 0.00 0.00 0.00 0.00 0.00 0.00 0.00 0.00 0.00 0.00
0.09 0.06 0.02 0.01 0.01 0.01 0.00 0.00 0.01 0.01 0.03 0.10 0.21 0.24 0.20 0.14 0.10 0.05 0.04 0.00 0.00 0.00 0.03 0.00 0.00 0.00 0.00 0.00 0.00 0.00 0.00 0.00 0.01 0.01 0.00 0.00 0.00 0.00 0.00 0.00 0.00 0.00 0.00 0.00 0.00 0.00 0.00 0.00 0.00 0.00 0.00 0.00 0.00 0.00
0.08 0.07 0.05 0.03 0.03 0.02 0.01 0.00 0.00 0.01 0.08 0.22 0.26 0.23 0.20 0.11 0.04 0.03 0.05 0.02 0.02 0.02 0.08 0.02 0.00 0.00 0.00 0.00 0.00 0.00 0.01 0.01 0.01 0.00 0.00 0.00 0.00 0.00 0.00 0.00 0.00 0.00 0.00 0.00 0.00 0.00 0.00 0.00 0.00 0.00 0.00 0.00 0.00 0.00
0.11 0.10 0.10 0.09 0.07 0.05 0.03 0.00 0.00 0.03 0.15 0.24 0.26 0.27 0.26 0.16 0.06 0.04 0.03 0.08 0.08 0.12 0.13 0.02 0.00 0.00 0.00 0.00 0.00 0.00 0.01 0.01 0.01 0.00 0.01 0.01 0.01 0.00 0.00 0.00 0.00 0.00 0.00 0.00 0.00 0.00 0.00 0.00 0.00 0.00 0.00 0.00 0.00 0.00
0.22 0.22 0.22 0.22 0.20 0.15 0.07 0.02 0.03 0.19 0.43 0.40 0.31 0.28 0.21 0.10 0.03 0.06 0.13 0.12 0.09 0.08 0.12 0.03 0.00 0.00 0.00 0.00 0.00 0.00 0.00 0.01 0.01 0.01 0.00 0.00 0.00 0.00 0.00 0.00 0.00 0.00 0.00 0.00 0.00 0.00 0.00 0.00 0.00 0.00 0.00 0.00 0.00 0.00
0.17 0.18 0.21 0.23 0.20 0.16 0.09 0.04 0.08 0.31 0.33 0.24 0.22 0.23 0.20 0.10 0.12 0.17 0.17 0.09 0.06 0.03 0.03 0.02 0.00 0.00 0.00 0.00 0.00 0.00 0.01 0.00 0.00 0.00 0.00 0.01 0.00 0.00 0.00 0.00 0.00 0.00 0.00 0.00 0.00 0.00 0.00 0.00 0.00 0.00 0.00 0.00 0.00 0.00
0.15 0.18 0.21 0.23 0.23 0.20 0.12 0.14 0.33 0.36 0.30 0.18 0.18 0.22 0.26 0.36 0.32 0.23 0.14 0.06 0.02 0.01 0.00 0.00 0.00 0.00 0.00 0.01 0.02 0.01 0.00 0.00 0.00 0.00 0.00 0.00 0.00 0.00 0.00 0.00 0.00 0.00 0.00 0.00 0.00 0.00 0.00 0.00 0.00 0.00 0.00 0.00 0.00 0.00
0.14 0.17 0.21 0.26 0.29 0.31 0.34 0.49 0.37 0.14 0.23 0.31 0.35 0.33 0.36 0.34 0.32 0.20 0.10 0.05 0.04 0.03 0.01 0.01 0.00 0.01 0.02 0.01 0.02 0.02 0.00 0.01 0.00 0.00 0.00 0.00 0.00 0.00 0.00 0.00 0.00 0.00 0.00 0.00 0.00 0.00 0.00 0.00 0.00 0.00 0.00 0.00 0.00 0.00
0.19 0.21 0.24 0.30 0.38 0.48 0.61 0.58 0.35 0.21 0.35 0.43 0.39 0.39 0.36 0.28 0.19 0.07 0.03 0.06 0.09 0.10 0.10 0.05 0.02 0.04 0.02 0.02 0.03 0.02 0.01 0.01 0.01 0.01 0.00 0.00 0.00 0.01 0.01 0.01 0.01 0.00 0.00 0.00 0.00 0.00 0.00 0.00 0.00 0.00 0.00 0.00 0.00 0.00
0.24 0.28 0.31 0.36 0.49 0.68 0.76 0.71 0.42 0.32 0.50 0.48 0.43 0.39 0.24 0.16 0.03 0.00 0.03 0.08 0.14 0.18 0.19 0.09 0.06 0.06 0.02 0.04 0.02 0.01 0.01 0.01 0.01 0.00 0.00 0.01 0.04 0.03 0.02 0.02 0.02 0.00 0.00 0.00 0.00 0.00 0.00 0.00 0.00 0.00 0.00 0.00 0.00 0.00
0.28 0.31 0.37 0.39 0.43 0.53 0.61 0.43 0.32 0.43 0.37 0.32 0.31 0.18 0.08 0.00 0.00 0.01 0.09 0.19 0.31 0.34 0.26 0.17 0.10 0.04 0.03 0.03 0.02 0.01 0.01 0.00 0.00 0.00 0.03 0.07 0.06 0.05 0.02 0.01 0.01 0.00 0.00 0.00 0.00 0.00 0.00 0.01 0.02 0.02 0.03 0.03 0.02 0.01
0.44 0.44 0.29 0.17 0.39 0.66 0.67 0.59 0.59 0.41 0.38 0.32 0.25 0.08 0.01 0.00 0.01 0.11 0.28 0.45 0.47 0.39 0.30 0.18 0.11 0.04 0.02 0.01 0.01 0.00 0.00 0.00 0.02 0.05 0.07 0.08 0.05 0.03 0.02 0.01 0.00 0.00 0.00 0.00 0.01 0.02 0.04 0.05 0.05 0.04 0.04 0.04 0.03 0.02
0.49 0.21 0.07 0.28 0.65 0.71 0.57 0.46 0.42 0.41 0.40 0.30 0.10 0.01 0.00 0.03 0.11 0.24 0.43 0.54 0.54 0.40 0.26 0.19 0.12 0.06 0.04 0.02 0.00 0.00 0.02 0.03 0.06 0.07 0.09 0.11 0.11 0.06 0.03 0.01 0.01 0.01 0.02 0.03 0.04 0.04 0.05 0.05 0.05 0.04 0.04 0.04 0.04 0.03
0.20 0.06 0.21 0.48 0.60 0.62 0.50 0.31 0.28 0.38 0.29 0.10 0.02 0.00 0.02 0.14 0.31 0.43 0.46 0.45 0.41 0.31 0.20 0.15 0.09 0.07 0.03 0.02 0.01 0.03 0.06 0.08 0.09 0.10 0.09 0.11 0.09 0.05 0.03 0.03 0.02 0.02 0.03 0.04 0.04 0.05 0.05 0.05 0.04 0.04 0.04 0.03 0.03 0.02
0.16 0.29 0.43 0.32 0.33 0.44 0.45 0.35 0.37 0.33 0.15 0.09 0.06 0.06 0.16 0.38 0.49 0.48 0.43 0.38 0.29 0.20 0.14 0.10 0.08 0.06 0.03 0.04 0.05 0.07 0.09 0.08 0.05 0.03 0.03 0.04 0.03 0.02 0.02 0.01 0.01 0.02 0.03 0.04 0.04 0.05 0.04 0.05 0.05 0.05 0.04 0.03 0.03 0.02
0.48 0.58 0.43 0.39 0.46 0.44 0.47 0.51 0.36 0.22 0.21 0.14 0.09 0.16 0.36 0.44 0.42 0.36 0.29 0.24 0.18 0.14 0.08 0.05 0.02 0.03 0.05 0.09 0.09 0.09 0.07 0.05 0.03 0.01 0.00 0.00 0.00 0.00 0.01 0.01 0.02 0.02 0.02 0.01 0.01 0.03 0.03 0.02 0.03 0.03 0.03 0.04 0.05 0.03
0.49 0.60 0.48 0.37 0.40 0.49 0.52 0.50 0.31 0.22 0.16 0.14 0.16 0.31 0.41 0.35 0.26 0.17 0.13 0.12 0.08 0.05 0.03 0.03 0.06 0.09 0.09 0.07 0.05 0.04 0.04 0.04 0.04 0.03 0.04 0.02 0.01 0.00 0.00 0.00 0.01 0.01 0.01 0.01 0.01 0.01 0.01 0.02 0.02 0.02 0.03 0.02 0.03 0.04
0.43 0.46 0.43 0.56 0.57 0.55 0.52 0.43 0.27 0.19 0.17 0.20 0.22 0.26 0.22 0.14 0.08 0.07 0.06 0.03 0.03 0.03 0.04 0.07 0.07 0.07 0.07 0.06 0.05 0.04 0.03 0.02 0.02 0.02 0.02 0.02 0.01 0.01 0.00 0.00 0.01 0.00 0.00 0.01 0.01 0.01 0.01 0.01 0.02 0.03 0.03 0.02 0.02 0.01
0.48 0.55 0.61 0.58 0.51 0.43 0.25 0.11 0.11 0.17 0.28 0.29 0.21 0.16 0.10 0.04 0.04 0.03 0.02 0.02 0.03 0.04 0.05 0.04 0.05 0.05 0.05 0.03 0.02 0.01 0.00 0.00 0.00 0.00 0.00 0.00 0.00 0.00 0.00 0.00 0.00 0.01 0.01 0.00 0.00 0.00 0.00 0.01 0.01 0.03 0.02 0.01 0.01 0.01
0.40 0.42 0.37 0.34 0.28 0.17 0.07 0.04 0.10 0.20 0.25 0.20 0.12 0.06 0.03 0.03 0.04 0.03 0.03 0.02 0.03 0.03 0.03 0.03 0.03 0.02 0.01 0.00 0.00 0.00 0.00 0.00 0.00 0.00 0.00 0.00 0.00 0.00 0.00 0.00 0.00 0.00 0.01 0.01 0.00 0.00 0.00 0.01 0.01 0.01 0.01 0.02 0.01 0.02
0.32 0.29 0.22 0.13 0.08 0.04 0.04 0.08 0.14 0.16 0.12 0.08 0.07 0.07 0.05 0.04 0.03 0.03 0.01 0.02 0.02 0.02 0.02 0.01 0.00 0.00 0.00 0.00 0.00 0.00 0.00 0.00 0.00 0.00 0.00 0.00 0.00 0.00 0.00 0.00 0.00 0.00 0.00 0.00 0.00 0.00 0.00 0.00 0.01 0.01 0.01 0.02 0.04 0.06
0.25 0.18 0.09 0.05 0.03 0.03 0.08 0.09 0.07 0.06 0.05 0.07 0.06 0.04 0.04 0.04 0.03 0.02 0.01 0.01 0.01 0.01 0.01 0.00 0.00 0.00 0.00 0.00 0.00 0.00 0.00 0.00 0.00 0.00 0.00 0.00 0.00 0.01 0.01 0.00 0.00 0.00 0.00 0.00 0.02 0.02 0.01 0.01 0.01 0.01 0.01 0.01 0.03 0.04
0.19 0.11 0.04 0.05 0.07 0.09 0.09 0.08 0.07 0.06 0.06 0.06 0.04 0.05 0.06 0.05 0.03 0.02 0.01 0.01 0.01 0.00 0.00 0.00 0.00 0.00 0.00 0.00 0.00 0.00 0.00 0.00 0.00 0.00 0.00 0.00 0.00 0.00 0.01 0.01 0.02 0.01 0.03 0.02 0.01 0.02 0.04 0.02 0.02 0.01 0.01 0.01 0.02 0.04
0.10 0.08 0.12 0.16 0.16 0.14 0.12 0.09 0.07 0.06 0.05 0.05 0.05 0.05 0.05 0.04 0.03 0.03 0.02 0.01 0.00 0.00 0.00 0.00 0.00 0.00 0.00 0.00 0.00 0.00 0.00 0.00 0.00 0.00 0.00 0.00 0.00 0.00 0.00 0.00 0.00 0.02 0.02 0.01 0.02 0.03 0.04 0.03 0.04 0.04 0.02 0.02 0.02 0.03
0.09 0.12 0.12 0.11 0.09 0.07 0.06 0.06 0.06 0.06 0.06 0.05 0.04 0.04 0.04 0.03 0.04 0.02 0.01 0.00 0.00 0.00 0.00 0.00 0.00 0.00 0.00 0.00 0.00 0.00 0.00 0.00 0.00 0.00 0.00 0.00 0.00 0.00 0.00 0.00 0.00 0.00 0.00 0.00 0.00 0.01 0.03 0.05 0.06 0.05 0.03 0.02 0.03 0.03
0.08 0.07 0.05 0.06 0.06 0.07 0.07 0.07 0.06 0.05 0.04 0.03 0.02 0.02 0.01 0.01 0.01 0.00 0.00 0.00 0.00 0.00 0.00 0.00 0.00 0.00 0.00 0.00 0.00 0.00 0.00 0.00 0.00 0.00 0.01 0.01 0.00 0.00 0.00 0.00 0.00 0.00 0.00 0.00 0.01 0.00 0.01 0.01 0.01 0.01 0.02 0.02 0.02 0.03
0.07 0.07 0.06 0.07 0.06 0.07 0.06 0.04 0.02 0.00 0.00 0.00 0.00 0.00 0.00 0.00 0.00 0.00 0.00 0.00 0.00 0.00 0.00 0.00 0.00 0.00 0.00 0.00 0.00 0.00 0.00 0.00 0.00 0.00 0.00 0.01 0.00 0.00 0.00 0.01 0.03 0.02 0.01 0.00 0.01 0.01 0.01 0.01 0.01 0.01 0.01 0.02 0.02 0.02
0.03 0.04 0.03 0.03 0.04 0.04 0.03 0.01 0.00 0.00 0.00 0.00 0.00 0.00 0.00 0.00 0.00 0.00 0.00 0.00 0.00 0.00 0.00 0.00 0.00 0.00 0.00 0.00 0.00 0.00 0.00 0.00 0.00 0.00 0.02 0.03 0.03 0.03 0.04 0.07 0.04 0.01 0.00 0.00 0.01 0.01 0.01 0.02 0.01 0.02 0.02 0.02 0.02 0.02
0.00 0.00 0.00 0.00 0.00 0.00 0.00 0.00 0.00 0.00 0.00 0.00 0.00 0.00 0.00 0.00 0.00 0.00 0.00 0.00 0.00 0.00 0.00 0.00 0.00 0.00 0.00 0.00 0.00 0.00 0.00 0.00 0.00 0.02 0.03 0.04 0.04 0.04 0.05 0.08 0.02 0.00 0.00 0.01 0.01 0.01 0.01 0.01 0.01 0.01 0.02 0.02 0.02 0.02